Simultaneous Nadir Overpasses (SNOs) Predictions

Prediction of SNOs between GOES-15 and FY3D Satellite Orbit:

Table of predicted SNOs for the next 14.0 days since TLE Epoch: 6/24/2023
Index Date Time (GOES-15) GOES-15 Lat,Lon FY3D Lat,Lon Distance(km) Time Diff (sec)
1 06/25/2023 13:27:14 -0.23,-165.24 0.74,-169.60 496.43 80
2 06/26/2023 13:08:53 -0.21,-165.62 -0.33,-165.16 52.93 80
3 06/29/2023 01:13:02 0.23,-166.57 0.30,-166.16 46.67 80
4 07/01/2023 13:14:25 -0.25,-167.51 -0.32,-167.14 42.46 80
5 07/04/2023 01:18:35 0.27,-168.44 0.31,-168.14 32.73 80
6 07/06/2023 13:25:18 -0.29,-169.36 -0.34,-169.13 26.30 80
